ITY556 LIRN-LSZH

Flight info

Callsign ITY556
Flight time N/A
Altitude 38000
Route ALAXI DCT INSOX DCT NIGSO DCT OSBUL DCT PEPAG DCT CANNE Z651 KELIP
Aircraft A319/M-SDE3FGHIRWY/LB1

Departure

Time 2026-04-28 18:37
Airport Naples International Airport (LIRN)

Arrival

Time N/A
Airport Zürich Airport (LSZH)
Time Latitude Longitude Altitude Speed Heading
2026-04-28 18:12 40.87879 14.28284 291 ft 0 kts 187°
2026-04-28 18:28 40.87894 14.28287 293 ft 4 kts 185°
2026-04-28 18:28 40.87921 14.28288 292 ft 4 kts 174°
2026-04-28 18:28 40.87945 14.28280 295 ft 4 kts 138°
2026-04-28 18:28 40.87953 14.28265 295 ft 0 kts 99°
2026-04-28 18:31 40.87951 14.28278 294 ft 2 kts 99°
2026-04-28 18:31 40.87947 14.28310 292 ft 5 kts 99°
2026-04-28 18:31 40.87940 14.28372 292 ft 8 kts 98°
2026-04-28 18:32 40.87944 14.28457 290 ft 10 kts 69°
2026-04-28 18:32 40.88001 14.28529 285 ft 13 kts 44°
2026-04-28 18:32 40.88061 14.28628 283 ft 15 kts 52°
2026-04-28 18:32 40.88129 14.28747 280 ft 17 kts 53°
2026-04-28 18:33 40.88207 14.28884 277 ft 20 kts 53°
2026-04-28 18:33 40.88294 14.29035 273 ft 22 kts 53°
2026-04-28 18:33 40.88381 14.29187 269 ft 20 kts 53°
2026-04-28 18:33 40.88464 14.29332 265 ft 19 kts 52°
2026-04-28 18:34 40.88549 14.29478 261 ft 16 kts 52°
2026-04-28 18:34 40.88624 14.29607 257 ft 19 kts 52°
2026-04-28 18:34 40.88711 14.29756 253 ft 22 kts 52°
2026-04-28 18:34 40.88798 14.29907 248 ft 19 kts 52°
2026-04-28 18:35 40.88880 14.30049 243 ft 18 kts 53°
2026-04-28 18:35 40.88952 14.30173 239 ft 16 kts 52°
2026-04-28 18:35 40.89031 14.30262 236 ft 14 kts 355°
2026-04-28 18:35 40.89108 14.30198 237 ft 12 kts 308°
2026-04-28 18:36 40.89112 14.30152 235 ft 7 kts 255°
2026-04-28 18:36 40.89095 14.30117 237 ft 1 kts 238°
2026-04-28 18:36 40.89094 14.30114 237 ft 2 kts 238°
2026-04-28 18:36 40.88955 14.29819 247 ft 75 kts 238°
2026-04-28 18:37 40.88558 14.28987 270 ft 136 kts 238°
2026-04-28 18:37 40.87988 14.27792 581 ft 157 kts 237°
2026-04-28 18:37 40.87256 14.26721 1164 ft 159 kts 218°
2026-04-28 18:37 40.86231 14.26211 1727 ft 161 kts 179°
2026-04-28 18:38 40.85098 14.26380 2229 ft 172 kts 171°
2026-04-28 18:38 40.83844 14.26583 2617 ft 190 kts 172°
2026-04-28 18:38 40.82529 14.26778 3205 ft 194 kts 172°
2026-04-28 18:38 40.81176 14.26972 3844 ft 197 kts 173°
2026-04-28 18:39 40.79812 14.27177 4485 ft 199 kts 173°
2026-04-28 18:39 40.78427 14.27374 5115 ft 200 kts 172°
2026-04-28 18:39 40.77042 14.27583 5766 ft 201 kts 172°
2026-04-28 18:39 40.75649 14.27818 6372 ft 203 kts 171°
2026-04-28 18:40 40.74239 14.28064 6986 ft 205 kts 172°
2026-04-28 18:40 40.72847 14.28464 7573 ft 206 kts 153°
2026-04-28 18:40 40.71802 14.29735 8122 ft 209 kts 120°
2026-04-28 18:40 40.71479 14.31675 8352 ft 232 kts 84°
2026-04-28 18:41 40.71798 14.33806 8825 ft 241 kts 79°
2026-04-28 18:41 40.72142 14.35977 9594 ft 243 kts 79°
2026-04-28 18:41 40.72482 14.38173 10363 ft 246 kts 79°
2026-04-28 18:41 40.72961 14.40343 11090 ft 250 kts 61°
2026-04-28 18:42 40.74173 14.41983 11762 ft 257 kts 30°
2026-04-28 18:42 40.75968 14.42573 12039 ft 282 kts 357°
2026-04-28 18:42 40.77985 14.42223 12298 ft 306 kts 350°
2026-04-28 18:42 40.80156 14.41676 12531 ft 329 kts 348°
2026-04-28 18:43 40.82477 14.41036 12748 ft 351 kts 348°
2026-04-28 18:43 40.84906 14.40359 13285 ft 360 kts 348°
2026-04-28 18:43 40.87375 14.39691 13959 ft 365 kts 349°
2026-04-28 18:43 40.89879 14.39041 14634 ft 368 kts 349°
2026-04-28 18:44 40.92323 14.38131 15265 ft 373 kts 338°
2026-04-28 18:44 40.96620 14.34215 16536 ft 380 kts 320°
2026-04-28 18:44 40.98655 14.31941 17164 ft 384 kts 320°
2026-04-28 18:45 41.00704 14.29652 17763 ft 387 kts 320°
2026-04-28 18:45 41.02773 14.27340 18357 ft 391 kts 320°
2026-04-28 18:45 41.04858 14.25007 18943 ft 394 kts 320°
2026-04-28 18:45 41.06961 14.22650 19527 ft 397 kts 320°
2026-04-28 18:46 41.09083 14.20273 20081 ft 401 kts 320°
2026-04-28 18:46 41.11226 14.17869 20640 ft 404 kts 320°
2026-04-28 18:46 41.13375 14.15457 21176 ft 408 kts 320°
2026-04-28 18:46 41.15547 14.13020 21698 ft 411 kts 320°
2026-04-28 18:47 41.17737 14.10559 22209 ft 414 kts 320°
2026-04-28 18:47 41.19942 14.08075 22706 ft 417 kts 320°
2026-04-28 18:47 41.22161 14.05570 23183 ft 420 kts 320°
2026-04-28 18:47 41.24392 14.03046 23640 ft 423 kts 320°
2026-04-28 18:48 41.26643 14.00503 24086 ft 426 kts 320°
2026-04-28 18:48 41.28907 13.97940 24520 ft 429 kts 319°
2026-04-28 18:48 41.31045 13.95155 24932 ft 432 kts 313°
2026-04-28 18:48 41.33109 13.92241 25335 ft 434 kts 313°
2026-04-28 18:49 41.35188 13.89304 25726 ft 437 kts 313°
2026-04-28 18:49 41.36571 13.87348 25980 ft 439 kts 313°
2026-04-28 18:49 41.39378 13.83383 26479 ft 442 kts 313°
2026-04-28 18:49 41.41494 13.80393 26843 ft 444 kts 313°
2026-04-28 18:50 41.43619 13.77387 27200 ft 447 kts 313°
2026-04-28 18:50 41.45755 13.74363 27554 ft 449 kts 313°
2026-04-28 18:50 41.47905 13.71315 27897 ft 452 kts 313°
2026-04-28 18:50 41.50063 13.68250 28233 ft 454 kts 313°
2026-04-28 18:51 41.52229 13.65168 28556 ft 456 kts 313°
2026-04-28 18:51 41.54378 13.62108 28869 ft 459 kts 313°
2026-04-28 18:51 41.56563 13.58998 29175 ft 461 kts 313°
2026-04-28 18:51 41.58762 13.55861 29469 ft 463 kts 313°
2026-04-28 18:52 41.60966 13.52713 29768 ft 465 kts 313°
2026-04-28 18:52 41.63179 13.49549 30047 ft 467 kts 313°
2026-04-28 18:52 41.65383 13.46392 30321 ft 469 kts 313°
2026-04-28 18:52 41.67617 13.43192 30592 ft 471 kts 313°
2026-04-28 18:53 41.69856 13.39979 30855 ft 473 kts 313°
2026-04-28 18:53 41.72105 13.36744 31112 ft 475 kts 313°
2026-04-28 18:53 41.74354 13.33503 31398 ft 476 kts 313°
2026-04-28 18:53 41.76603 13.30256 31766 ft 475 kts 313°
2026-04-28 18:54 41.78843 13.27019 32132 ft 474 kts 313°
2026-04-28 18:54 41.81093 13.23794 32488 ft 473 kts 315°
2026-04-28 18:54 41.83578 13.20917 32821 ft 472 kts 324°
2026-04-28 18:54 41.86276 13.18415 33177 ft 471 kts 326°
2026-04-28 18:55 41.88977 13.15924 33506 ft 471 kts 326°
2026-04-28 18:55 41.90759 13.14273 33729 ft 470 kts 325°
2026-04-28 18:55 41.94359 13.10925 34183 ft 469 kts 325°
2026-04-28 18:55 41.97039 13.08423 34522 ft 469 kts 325°
2026-04-28 18:56 41.99714 13.05919 34843 ft 468 kts 325°
2026-04-28 18:56 42.02384 13.03419 35152 ft 467 kts 325°
2026-04-28 18:56 42.05053 13.00916 35443 ft 467 kts 325°
2026-04-28 18:56 42.07696 12.98439 35729 ft 466 kts 325°
2026-04-28 18:57 42.10354 12.95948 36009 ft 466 kts 325°
2026-04-28 18:57 42.13011 12.93457 36273 ft 465 kts 325°
2026-04-28 18:57 42.15669 12.90969 36518 ft 465 kts 325°
2026-04-28 18:57 42.18292 12.88512 36735 ft 465 kts 325°
2026-04-28 18:58 42.20946 12.86021 36940 ft 465 kts 325°
2026-04-28 18:58 42.23598 12.83527 37144 ft 465 kts 325°
2026-04-28 18:58 42.26256 12.81025 37349 ft 465 kts 325°
2026-04-28 18:58 42.28905 12.78523 37538 ft 465 kts 325°
2026-04-28 18:59 42.31551 12.76016 37720 ft 465 kts 325°
2026-04-28 18:59 42.34200 12.73507 37898 ft 465 kts 325°
2026-04-28 18:59 42.36849 12.70998 38062 ft 465 kts 325°
2026-04-28 18:59 42.39457 12.68526 38108 ft 465 kts 325°
2026-04-28 19:00 42.44715 12.63533 38110 ft 464 kts 325°
2026-04-28 19:00 42.49938 12.58582 38701 ft 442 kts 323°
2026-04-28 19:01 42.52420 12.56226 39236 ft 429 kts 323°
2026-04-28 19:01 42.54841 12.53923 39202 ft 422 kts 322°
2026-04-28 19:01 42.57224 12.51649 38791 ft 417 kts 322°
2026-04-28 19:01 42.59571 12.49402 38303 ft 414 kts 322°
2026-04-28 19:02 42.61916 12.47154 38068 ft 413 kts 322°
2026-04-28 19:02 42.64226 12.44935 38064 ft 413 kts 322°
2026-04-28 19:02 42.68920 12.40428 38064 ft 413 kts 322°
2026-04-28 19:03 42.73617 12.35919 38064 ft 413 kts 322°
2026-04-28 19:03 42.78310 12.31409 38063 ft 413 kts 322°
2026-04-28 19:04 42.82966 12.26931 38062 ft 412 kts 322°
2026-04-28 19:04 42.87645 12.22407 38064 ft 412 kts 322°
2026-04-28 19:05 42.92315 12.17882 38065 ft 412 kts 322°
2026-04-28 19:05 42.96994 12.13349 38066 ft 412 kts 322°
2026-04-28 19:06 43.00906 12.09553 38064 ft 412 kts 322°
2026-04-28 19:06 43.06333 12.04275 38062 ft 412 kts 322°
2026-04-28 19:07 43.10993 11.99730 38064 ft 411 kts 322°
2026-04-28 19:07 43.15650 11.95179 38059 ft 411 kts 322°
2026-04-28 19:08 43.20305 11.90624 38058 ft 411 kts 322°
2026-04-28 19:08 43.24962 11.86058 38054 ft 412 kts 322°
2026-04-28 19:09 43.29586 11.81516 38055 ft 411 kts 322°
2026-04-28 19:09 43.34236 11.76944 38056 ft 411 kts 322°
2026-04-28 19:10 43.38886 11.72366 38056 ft 411 kts 322°
2026-04-28 19:10 43.43517 11.67792 38054 ft 411 kts 322°
2026-04-28 19:11 43.48153 11.63200 38053 ft 410 kts 322°
2026-04-28 19:11 43.52775 11.58605 38050 ft 410 kts 321°
2026-04-28 19:12 43.57394 11.54008 38049 ft 409 kts 321°
2026-04-28 19:12 43.62015 11.49416 38046 ft 409 kts 322°
2026-04-28 19:13 43.66634 11.44815 38042 ft 409 kts 321°
2026-04-28 19:13 43.71243 11.40206 38040 ft 409 kts 321°
2026-04-28 19:14 43.75848 11.35588 38038 ft 409 kts 321°
2026-04-28 19:14 43.80474 11.31008 38030 ft 409 kts 322°
2026-04-28 19:15 43.85131 11.26477 38029 ft 409 kts 322°
2026-04-28 19:15 43.88999 11.22711 38027 ft 409 kts 322°
2026-04-28 19:16 43.94394 11.17416 38023 ft 409 kts 322°
2026-04-28 19:16 43.99040 11.12839 38031 ft 410 kts 322°
2026-04-28 19:17 44.03693 11.08254 38050 ft 410 kts 322°
2026-04-28 19:17 44.08308 11.03699 38072 ft 409 kts 322°
2026-04-28 19:18 44.12914 10.99145 38089 ft 409 kts 322°
2026-04-28 19:18 44.17549 10.94557 38104 ft 409 kts 321°
2026-04-28 19:19 44.22144 10.89995 38114 ft 409 kts 321°
2026-04-28 19:19 44.26740 10.85420 38129 ft 409 kts 321°
2026-04-28 19:20 44.31375 10.80797 38144 ft 409 kts 321°
2026-04-28 19:20 44.35959 10.76211 38155 ft 409 kts 321°
2026-04-28 19:21 44.40591 10.71571 38150 ft 410 kts 321°
2026-04-28 19:21 44.45203 10.66958 38150 ft 410 kts 321°
2026-04-28 19:22 44.48298 10.63848 38147 ft 409 kts 321°
2026-04-28 19:22 44.54449 10.57643 38118 ft 409 kts 321°
2026-04-28 19:23 44.59048 10.53003 38105 ft 409 kts 321°
2026-04-28 19:23 44.63668 10.48338 38076 ft 410 kts 321°
2026-04-28 19:24 44.67513 10.44456 38065 ft 409 kts 321°
2026-04-28 19:24 44.72131 10.39775 38051 ft 409 kts 321°
2026-04-28 19:25 44.76744 10.35073 38039 ft 410 kts 321°
2026-04-28 19:25 44.81361 10.30364 38031 ft 410 kts 321°
2026-04-28 19:26 44.85923 10.25706 38026 ft 410 kts 321°